Printer-friendly version

IAU Minor Planet Center

Minor Planet Center

MPEC 2003-H24 : 2003 HM

The following Minor Planet Electronic Circular may be linked-to from your own Web pages, but must not otherwise be redistributed electronically.


Read MPEC 2003-H23 Read MPEC 2003-H25


M.P.E.C. 2003-H24                                Issued 2003 Apr. 24, 14:44 UT

     The Minor Planet Electronic Circulars contain information on unusual
         minor planets and routine data on comets.  They are published
   on behalf of Commission 20 of the International Astronomical Union by the
          Minor Planet Center, Smithsonian Astrophysical Observatory,
                          Cambridge, MA 02138, U.S.A.

             Prepared using the Tamkin Foundation Computer Network

                              MPC@CFA.HARVARD.EDU
          URL http://cfa-www.harvard.edu/iau/mpc.html  ISSN 1523-6714

                                    2003 HM

Observations:
     K03H00M* C2003 04 23.13712 08 45 36.48 +25 52 41.4          18.3        704
     K03H00M  C2003 04 23.14740 08 45 35.82 +25 47 24.7          18.6        704
     K03H00M  C2003 04 23.15766 08 45 35.20 +25 42 10.5          18.8        704
     K03H00M  C2003 04 23.16791 08 45 34.54 +25 36 55.2          18.4        704
     K03H00M  C2003 04 23.83530 08 45 35.67 +20 12 25.9                      246
     K03H00M  C2003 04 23.83558 08 45 35.65 +20 12 16.1                      246
     K03H00M  C2003 04 23.83593 08 45 35.63 +20 12 06.7                      246
     K03H00M  C2003 04 23.83620 08 45 35.61 +20 11 58.3                      246
     K03H00M  C2003 04 23.83670 08 45 35.64 +20 11 45.9                      246
     K03H00M  C2003 04 23.83704 08 45 35.58 +20 11 35.8                      246
     K03H00M  C2003 04 23.84263 08 45 35.63 +20 09 08.9                      587
     K03H00M  C2003 04 23.84374 08 45 35.60 +20 08 38.2                      587
     K03H00M  C2003 04 23.84484 08 45 35.60 +20 08 07.4                      587
     K03H00M  C2003 04 23.84869 08 45 35.41 +20 06 19.7                      587
     K03H00M  C2003 04 23.84980 08 45 35.34 +20 05 48.8                      587
     K03H00M  C2003 04 23.89821808 45 35.15 +19 43 18.0          18.7 R      J95
     K03H00M  C2003 04 23.90364108 45 34.95 +19 40 49.2                      J95
     K03H00M  C2003 04 23.92142408 45 34.44 +19 32 38.8          18.4 R      J95
     K03H00M BC2003 04 23.92697908 45 34.26 +19 30 05.4          18.1 R      J95
     K03H00M  C2003 04 24.12794 08 45 37.61 +18 01 02.1          18.0 R      926
     K03H00M  C2003 04 24.12826 08 45 37.59 +18 00 54.3          18.1 R      926
     K03H00M  C2003 04 24.12855 08 45 37.55 +18 00 46.2          18.1 R      926
     K03H00M  C2003 04 24.16488 08 45 35.51 +17 44 39.2          18.3 R      854
     K03H00M  C2003 04 24.16569 08 45 35.44 +17 44 18.6          18.3 R      854
     K03H00M  C2003 04 24.16729 08 45 35.36 +17 43 36.1          18.2 R      854
     K03H00M  C2003 04 24.16891 08 45 35.28 +17 42 54.3          18.1 R      854

Observer details:
246 Klet Observatory-KLENOT.  Observer M. Tichy.  1.06-m KLENOT Telescope
    + CCD.
587 Sormano.  Observers F. Manca, A. Testa.  0.5-m reflector + CCD.
704 Lincoln Laboratory ETS, New Mexico.  Observers M. Blythe, F. Shelly,
    M. Bezpalko, R. Huber, L. Manguso, S. Adams, D. Torres, T. Brothers,
    S. Partridge.  Measurers J. Stuart, R. Sayer, J. Evans, P. Hopman.  1.0-m
    f/2.15 reflector + CCD.
854 Sabino Canyon Observatory, Tucson.  Observer J. E. McGaha.  0.30-m f/10.0
    Schmidt-Cassegrain + CCD.
926 Tenagra II Observatory.  Observers P. R. Holvorcem, M. Schwartz.  0.81-m
    f/7 Ritchey-Chretien + CCD.
J95 Great Shefford.  Observer P. Birtwhistle.  0.30-m f/6.3 Schmidt-Cassegrain
    + CCD.

Orbital elements:
2003 HM
Epoch 2003 June 10.0 TT = JDT 2452800.5                 MPC
M 211.38125              (2000.0)            P               Q
n   1.34130331     Peri.   19.12839     +0.66337728     -0.71481282
a   0.8143005      Node    30.57273     +0.61724965     +0.35555007
e   0.2677754      Incl.   25.79082     +0.42300527     +0.60218501
P   0.73           H   22.1           G   0.15           U   9
Residuals in seconds of arc
030423 704  0.2-  0.0     030423 246  0.3+  0.5+    030423 J95  0.1-  0.6-
030423 704  0.1-  0.6-    030423 587  0.5-  0.3-    030424 926  0.1-  0.3-
030423 704  0.2+  0.6+    030423 587  0.2-  0.2-    030424 926  0.1-  0.4+
030423 704  0.3-  0.1+    030423 587  0.5+  0.3-    030424 926  0.4-  0.0
030423 246  0.5+  2.1+    030423 587  0.2+  0.9-    030424 854  0.1+  0.7-
030423 246  0.4+  0.1+    030423 587  0.1-  1.0-    030424 854  0.2-  0.1+
030423 246  0.3+  0.5+    030423 J95  0.5-  0.7-    030424 854  0.2-  0.0
030423 246  0.2+  0.4-    030423 J95  0.7-  0.2+    030424 854  0.1-  1.1+
030423 246  0.9+  1.1+    030423 J95  0.1+  0.1-

Ephemeris:
2003 HM                  a,e,i = 0.81, 0.27, 26                  q = 0.5963
Date    TT    R. A. (2000) Decl.     Delta      r     Elong.  Phase     V
2003 04 21    08 45.78   +46 06.7    0.044    1.006    90.5    87.0    18.4
2003 04 22    08 45.72   +36 12.9    0.045    1.008    92.5    84.9    18.4
2003 04 23    08 45.68   +27 04.1    0.048    1.010    94.1    83.2    18.4
2003 04 24    08 45.67   +18 59.1    0.051    1.012    95.4    81.7    18.5
2003 04 25    08 45.69   +12 03.0    0.056    1.013    96.2    80.7    18.7
2003 04 26    08 45.72   +06 11.6    0.061    1.015    96.7    79.9    18.8
2003 04 27    08 45.78   +01 16.6    0.066    1.017    97.0    79.3    19.0
2003 04 28    08 45.86   -02 51.3    0.072    1.018    97.0    78.9    19.2
2003 04 29    08 45.95   -06 20.7    0.079    1.019    97.0    78.6    19.4
2003 04 30    08 46.07   -09 18.7    0.085    1.021    96.8    78.4    19.5
2003 05 01    08 46.20   -11 51.2    0.092    1.022    96.6    78.3    19.7
2003 05 02    08 46.35   -14 03.0    0.099    1.023    96.3    78.2    19.9
2003 05 03    08 46.51   -15 57.8    0.106    1.024    96.0    78.1    20.0
2003 05 04    08 46.69   -17 38.5    0.113    1.025    95.7    78.1    20.1
2003 05 05    08 46.87   -19 07.6    0.120    1.026    95.3    78.0    20.3
2003 05 06    08 47.08   -20 26.8    0.127    1.027    94.9    78.0    20.4
2003 05 07    08 47.29   -21 37.8    0.134    1.028    94.5    78.0    20.5
2003 05 08    08 47.51   -22 41.7    0.141    1.029    94.1    78.0    20.6
2003 05 09    08 47.74   -23 39.6    0.148    1.030    93.7    78.1    20.7
2003 05 10    08 47.98   -24 32.3    0.155    1.030    93.3    78.1    20.8
2003 05 11    08 48.22   -25 20.5    0.162    1.031    92.8    78.1    20.9
2003 05 12    08 48.47   -26 04.8    0.169    1.031    92.4    78.1    21.0
2003 05 13    08 48.72   -26 45.7    0.176    1.032    92.0    78.2    21.1
2003 05 14    08 48.98   -27 23.5    0.184    1.032    91.5    78.2    21.2
2003 05 15    08 49.25   -27 58.7    0.191    1.032    91.1    78.3    21.3
2003 05 16    08 49.51   -28 31.4    0.198    1.032    90.6    78.3    21.4
2003 05 17    08 49.78   -29 02.1    0.205    1.032    90.2    78.4    21.5
2003 05 18    08 50.05   -29 30.7    0.211    1.032    89.8    78.4    21.5
2003 05 19    08 50.33   -29 57.7    0.218    1.032    89.3    78.5    21.6
2003 05 20    08 50.61   -30 23.1    0.225    1.032    88.9    78.5    21.7
2003 05 21    08 50.89   -30 47.1    0.232    1.032    88.4    78.6    21.7
2003 05 22    08 51.17   -31 09.8    0.239    1.032    88.0    78.7    21.8
2003 05 23    08 51.46   -31 31.3    0.245    1.031    87.5    78.7    21.9
2003 05 24    08 51.75   -31 51.8    0.252    1.031    87.1    78.8    21.9
2003 05 25    08 52.04   -32 11.3    0.259    1.030    86.6    78.9    22.0
2003 05 26    08 52.33   -32 29.9    0.265    1.030    86.2    79.0    22.0
2003 05 27    08 52.62   -32 47.7    0.272    1.029    85.7    79.0    22.1
2003 05 28    08 52.92   -33 04.8    0.278    1.028    85.3    79.1    22.1
2003 05 29    08 53.22   -33 21.1    0.284    1.028    84.8    79.2    22.2
2003 05 30    08 53.51   -33 36.9    0.290    1.027    84.4    79.3    22.2
2003 05 31    08 53.81   -33 52.0    0.297    1.026    83.9    79.4    22.3

Timothy B. Spahr             (C) Copyright 2003 MPC           M.P.E.C. 2003-H24

Read MPEC 2003-H23 Read MPEC 2003-H25


Our Web policy. Index to the CBAT/MPC/ICQ pages.


Valid HTML 4.01!